FW6187 Weather Reports


time (UTC)temp
F
wind
direction
speed
knots
gust
knots
rain 1hr
in
rain 24hr
in
rain mn
in
humidity
%
barometer
mb
20260507211547 61 240 1.7 8.7 0.00 0.00 0.00 45 1011.4
20260507210038 60 239 0.9 6.1 0.00 0.00 0.00 51 1011.2
20260507204535 61 208 0.9 8.7 0.00 0.00 0.00 48 1011.3
20260507203036 60 195 0.0 8.7 0.00 0.00 0.00 47 1011.4
20260507201534 60 234 1.7 7.0 0.00 0.00 0.00 51 1011.4
20260507200032 61 284 0.9 7.0 0.00 0.00 0.00 53 1011.5
20260507194531 62 218 3.5 7.8 0.00 0.00 0.00 47 1011.7
20260507193030 61 204 0.9 5.2 0.00 0.00 0.00 56 1011.8
20260507191530 62 216 1.7 3.5 0.00 0.00 0.00 51 1011.9
20260507190027 62 191 1.7 8.7 0.00 0.00 0.00 51 1012.1
20260507184524 61 205 1.7 7.0 0.00 0.00 0.00 57 1012.1
20260507183022 61 224 2.6 7.8 0.00 0.00 0.00 58 1012.3
20260507181518 59 278 1.7 6.1 0.00 0.00 0.00 58 1012.3
20260507180017 59 220 0.9 4.3 0.00 0.00 0.00 57 1012.4
20260507174538 59 270 0.9 3.5 0.00 0.00 0.00 54 1012.5
20260507173021 58 234 0.9 7.8 0.00 0.00 0.00 57 1012.6
20260507171518 58 230 2.6 7.0 0.00 0.00 0.00 55 1012.7
20260507170012 59 186 0.9 7.8 0.00 0.00 0.00 57 1012.9
20260507164512 58 193 0.9 6.1 0.00 0.00 0.00 57 1013.1
20260507163011 58 201 3.5 8.7 0.00 0.00 0.00 59 1013.2
20260507161509 58 233 0.9 6.1 0.00 0.00 0.00 56 1013.3
20260507160008 58 195 0.9 4.3 0.00 0.00 0.00 59 1013.5
20260507154503 57 274 0.9 4.3 0.00 0.00 0.00 58 1013.8
20260507153001 57 214 2.6 7.0 0.00 0.00 0.00 58 1013.8
20260507151601 56 197 3.5 7.0 0.00 0.00 0.00 58 1014.0
20260507150058 56 243 0.9 7.8 0.00 0.00 0.00 59 1014.2
20260507144555 56 266 0.9 3.5 0.00 0.00 0.00 63 1014.5
20260507143100 56 205 0.9 3.5 0.00 0.00 0.00 65 1014.7
20260507141602 54 253 0.9 4.3 0.00 0.00 0.00 66 1014.9
20260507140052 52 199 1.7 7.8 0.00 0.00 0.00 70 1015.0
20260507134542 50 204 2.6 6.1 0.00 0.03 0.00 70 1015.2
20260507133040 50 179 0.9 6.1 0.00 0.03 0.00 74 1015.2
20260507131605 48 182 4.3 7.0 0.00 0.03 0.00 73 1015.2
20260507130034 48 209 1.7 5.2 0.00 0.03 0.00 78 1015.2
20260507124532 46 207 1.7 5.2 0.00 0.06 0.00 81 1015.3
20260507123038 43 178 2.6 5.2 0.00 0.06 0.00 83 1015.4
20260507121528 41 191 1.7 3.5 0.00 0.06 0.00 87 1015.3
20260507120032 40 200 0.9 2.6 0.00 0.06 0.00 89 1015.4
20260507114528 39 268 0.0 1.7 0.00 0.10 0.00 89 1015.4
20260507113057 36 293 0.0 0.0 0.00 0.10 0.00 89 1015.3
20260507111531 34 293 0.0 0.0 0.00 0.10 0.00 88 1015.2
20260507110026 33 293 0.0 0.0 0.00 0.10 0.00 87 1015.1
20260507104525 33 294 0.0 0.0 0.00 0.19 0.00 87 1015.1
20260507103025 33 293 0.0 0.0 0.00 0.19 0.00 87 1014.9
20260507101526 33 293 0.0 0.0 0.00 0.19 0.00 86 1014.7
20260507100033 33 293 0.0 0.0 0.00 0.19 0.00 86 1014.5
20260507094521 34 293 0.0 0.0 0.00 0.30 0.00 86 1014.6
20260507093019 34 293 0.0 0.0 0.00 0.30 0.00 86 1014.6
20260507091520 35 293 0.0 0.0 0.00 0.30 0.00 86 1014.6
20260507090015 35 293 0.0 0.0 0.00 0.30 0.00 85 1014.6
20260507084534 36 293 0.0 0.0 0.00 0.35 0.00 85 1014.6
20260507083020 36 294 0.0 0.0 0.00 0.35 0.00 84 1014.6
20260507081510 37 294 0.0 0.0 0.00 0.35 0.00 84 1014.5
20260507080008 37 294 0.0 0.0 0.00 0.35 0.00 84 1014.5
20260507074505 38 295 0.0 0.0 0.00 0.36 0.00 83 1014.5
20260507073002 39 293 0.0 0.0 0.00 0.36 0.00 83 1014.7
20260507071600 39 293 0.0 0.0 0.00 0.36 0.00 82 1014.6
20260507070108 40 293 0.0 1.7 0.00 0.36 0.00 82 1014.6
20260507064559 41 293 0.0 0.0 0.00 0.41 0.00 81 1014.6
20260507063055 42 294 0.0 0.0 0.00 0.41 0.00 80 1014.6
20260507061549 43 292 0.0 0.0 0.00 0.41 0.00 80 1014.7
20260507060047 43 292 0.0 0.0 0.00 0.41 0.00 79 1014.8
20260507054545 44 292 0.0 0.0 0.00 0.45 0.00 78 1014.9
20260507053042 44 293 0.0 0.0 0.00 0.45 0.00 75 1015.2
20260507051540 44 293 0.0 1.7 0.00 0.45 0.00 74 1015.4
20260507050100 44 335 0.0 3.5 0.00 0.45 0.00 73 1015.3
20260507044549 45 320 0.0 3.5 0.00 0.45 0.00 72 1015.3
20260507043036 45 299 0.0 2.6 0.00 0.45 0.00 71 1015.3
20260507041535 45 301 0.9 3.5 0.00 0.45 0.00 72 1015.2
20260507040032 45 330 0.0 3.5 0.00 0.45 0.00 72 1015.3
20260507034536 46 313 0.9 3.5 0.00 0.45 0.45 70 1015.1
20260507033036 46 335 2.6 4.3 0.00 0.45 0.45 70 1015.0
20260507031531 46 289 0.0 1.7 0.00 0.45 0.45 72 1015.0
20260507030026 46 294 0.9 2.6 0.00 0.45 0.45 70 1014.8
20260507024522 46 282 0.0 2.6 0.00 0.45 0.45 70 1014.6
20260507023020 46 340 0.9 2.6 0.00 0.45 0.45 70 1014.5
20260507021533 47 4 0.9 3.5 0.00 0.45 0.45 69 1014.5
20260507020023 47 8 0.0 2.6 0.00 0.45 0.45 69 1014.2
20260507014521 47 41 0.9 3.5 0.00 0.45 0.45 67 1014.2
20260507013016 48 31 1.7 4.3 0.00 0.45 0.45 65 1014.0
20260507011520 48 61 2.6 6.1 0.00 0.45 0.45 67 1014.2
20260507010027 49 54 1.7 4.3 0.00 0.45 0.45 67 1014.4
20260507004513 49 326 2.6 5.2 0.00 0.45 0.45 66 1014.3
20260507003010 49 335 0.9 7.0 0.00 0.45 0.45 67 1014.1
20260507001510 50 21 2.6 7.0 0.00 0.45 0.45 66 1014.1
20260507000007 50 286 0.9 4.3 0.00 0.45 0.45 67 1014.0
20260506234505 50 296 0.9 7.0 0.00 0.45 0.45 66 1013.6
20260506233003 51 272 1.7 7.8 0.00 0.45 0.45 65 1013.5
20260506231501 51 340 4.3 7.8 0.00 0.45 0.45 65 1013.1
20260506230100 52 350 3.5 12.2 0.00 0.45 0.45 64 1012.9
20260506230001 52 351 4.3 12.2 0.00 0.45 0.45 63 1012.9
20260506224557 53 309 3.5 7.0 0.00 0.45 0.45 66 1012.6
20260506223100 53 268 2.6 7.8 0.00 0.45 0.45 67 1012.7
20260506221556 53 280 0.0 7.8 0.00 0.45 0.45 73 1012.4
20260506220052 53 340 1.7 9.6 0.00 0.45 0.45 71 1012.3
20260506214551 52 274 3.5 7.8 0.00 0.45 0.45 72 1012.2
20260506213050 52 240 0.9 7.8 0.00 0.45 0.45 74 1012.1